Hourly Data Report for July 04, 2022

FISHER BRANCH (AUT)
MANITOBA
Current Station Operator: ECCC - MSC

51°05'00.100" N
97°33'16.200" W
253.00 m
50309J6
71442
WSZ

Download Data

Hourly Data (July 2022)
Hourly Data Report for July 4, 2022
TIME
LST
Temp Definition
°C
Dew Point Definition
°C
Rel Hum Definition
%
Precip. Amount Definition
mm

Wind Dir Definition
10's deg

Wind Spd Definition
km/h
Visibility Definition
km
Stn Press Definition
kPa
Hmdx Definition


Wind Chill Definition


Weather Definition


00:00 15.8 12.3 80 0.0 7 12   98.38     LegendNANA
01:00 16.1 12.1 77 0.0 3 6   98.46     LegendNANA
02:00 15.1 13.6 91 2.3 11 10   98.41     LegendNANA
03:00 15.2 13.4 89 0.0 11 11   98.40     LegendNANA
04:00 14.5 13.2 92 0.0 6 8   98.39     LegendNANA
05:00 14.6 13.1 91 0.0 7 14   98.33     LegendNANA
06:00 14.8 12.9 88 0.0 5 13   98.31     LegendNANA
07:00 15.8 13.2 85 0.0 7 9   98.30     LegendNANA
08:00 17.1 14.2 83 0.0 8 10   98.31     LegendNANA
09:00 17.5 13.8 79 0.0 5 11   98.28     LegendNANA
10:00 17.9 13.5 75 0.0 4 10   98.33     LegendNANA
11:00 18.1 13.3 74 0.0 4 11   98.36     LegendNANA
12:00 18.2 14.1 77 0.0 3 7   98.36     LegendNANA
13:00 18.3 13.6 74 0.0 4 8   98.40     LegendNANA
14:00 17.7 15.3 86 0.7 6 7   98.40     LegendNANA
15:00 18.6 14.8 79 0.3 4 6   98.41     LegendNANA
16:00 20.2 15.0 72 0.0 5 12   98.41     LegendNANA
17:00 20.6 13.8 65 0.0 5 16   98.38     LegendNANA
18:00 20.5 14.1 67 0.0 4 8   98.35     LegendNANA
19:00 19.7 14.2 70 0.0 1 5   98.40     LegendNANA
20:00 18.9 14.7 77 0.0 36 3   98.40     LegendNANA
21:00 18.3 14.1 76 0.0 36 8   98.45     LegendNANA
22:00 17.8 13.0 73 0.0 36 8   98.51     LegendNANA
23:00 16.4 14.1 86 0.0 31 5   98.53     LegendNANA

Notes on Data Quality.

Legend

  • E = Estimated
  • M = Missing
  • NA = Not Available*
  • [empty] = Indicates an unobserved value
Date modified: